Location: Cheching
(60.0667°N, 164.2167°W)
Time: 01:43:12
(UTC+00:00)

DX 1 - Pass Details

Date: 27 January 2021
Orbit: 618 x 631 km, 98.5° (Epoch: 07 March)

Event Time Altitude Azimuth Distance (km) Brightness Sun altitude
Exits shadow 07:32:22 18° 251° (WSW) 1,526 ? -33.3°
Drops below altitude 10° 07:33:43 10° 240° (WSW) 1,990 ? -33.5°
Sets 07:36:03 0° 230° (SW) 2,892 ? -33.7°
